Theta_e
331 327 329 329 324 327 327 324 322 325 334 333 320 320 327 323 319 325 325 325 335 342 351 364 357 356 358 351 352 352 349 352 350 350 351 351 357 359 358 360 360 362 361 361 363 361 361 362 361 361 360 361 361 360 359 358 356 354 351 350 347 345 343
330 327 329 331 328 333 328 317 322 331 329 333 334 324 322 321 320 327 326 319 322 327 338 358 360 357 357 353 352 351 351 352 350 350 351 350 355 357 357 359 360 362 362 361 363 362 360 361 361 360 360 361 360 359 358 356 354 353 351 349 346 344 343
329 330 327 326 327 331 329 322 329 332 318 319 329 323 320 322 321 323 324 323 325 325 335 355 357 355 358 354 352 353 352 352 350 350 352 352 354 355 356 358 360 362 362 362 363 361 360 360 360 360 360 359 359 357 356 355 354 353 350 348 346 343 343
326 330 324 318 321 326 330 329 330 332 326 319 320 321 324 323 323 326 327 326 330 340 351 358 356 357 357 353 355 354 351 352 350 350 351 353 353 354 354 356 359 361 362 361 363 361 360 360 359 360 359 358 358 356 355 354 353 352 350 347 345 344 344
323 323 324 320 322 323 324 324 321 322 327 324 321 324 324 322 326 332 328 322 336 368 371 357 354 355 354 353 355 354 352 352 351 350 350 351 352 354 353 355 358 360 360 361 361 360 360 360 359 358 358 358 357 354 354 352 351 350 348 346 345 344 343
317 321 329 328 327 327 326 324 323 322 324 321 317 320 323 323 325 330 326 320 338 370 363 352 355 352 349 351 352 353 353 351 351 349 349 350 351 353 353 353 356 358 360 360 360 360 358 358 358 357 358 358 355 354 353 351 350 349 347 346 345 344 344
323 328 330 328 328 329 331 329 328 329 330 323 315 317 324 322 319 327 326 320 340 371 359 348 353 348 345 347 349 351 350 348 350 349 348 350 351 353 352 352 354 357 358 358 359 359 357 357 357 356 357 357 354 353 352 350 350 348 347 346 345 345 345
328 329 329 329 330 330 327 328 329 329 329 329 329 337 338 323 317 324 321 316 338 376 365 347 348 348 344 343 346 349 347 347 348 348 350 352 351 351 351 351 352 355 355 357 358 357 357 356 357 356 356 356 354 353 351 350 349 348 346 346 345 346 346
319 321 323 322 325 328 328 331 330 328 331 331 333 340 334 323 322 325 320 319 339 368 360 344 344 346 342 341 342 344 346 347 348 350 353 353 353 353 352 351 353 354 355 358 358 356 356 356 356 356 355 355 353 352 351 349 348 347 346 346 346 346 346
318 317 320 322 326 327 328 333 329 328 332 326 325 327 322 321 327 326 323 328 341 355 351 342 343 344 341 341 341 343 348 350 354 355 355 355 356 354 353 353 353 354 357 358 358 356 356 356 356 355 354 354 352 351 351 350 348 347 347 346 346 346 345
324 322 330 340 338 325 319 325 326 328 331 326 328 326 321 327 331 326 335 343 335 339 350 344 341 343 340 342 346 350 354 356 358 360 357 358 358 356 354 353 354 356 358 359 360 357 356 355 355 354 353 352 351 351 350 349 348 347 346 346 347 346 346
328 336 344 343 334 323 319 323 323 326 331 329 325 320 325 339 329 321 343 354 329 332 350 345 339 343 341 343 349 353 357 357 358 359 360 362 361 358 357 355 356 359 359 361 360 356 355 356 355 354 353 351 350 350 349 348 348 347 346 347 348 347 346
329 338 341 340 333 325 325 325 323 326 329 327 323 321 330 341 326 320 341 350 334 337 347 341 338 340 340 343 349 350 354 356 356 358 361 365 364 360 359 357 357 358 358 360 360 356 355 355 354 353 352 350 349 349 349 349 347 347 347 347 348 348 346
329 332 334 338 331 326 326 326 326 327 328 328 326 326 334 338 331 332 345 347 342 342 339 337 337 338 339 344 346 348 351 355 359 359 360 365 366 364 360 356 355 356 357 359 359 357 355 353 354 353 351 350 349 348 348 348 347 346 346 347 348 348 346
325 330 332 333 331 328 324 323 328 329 326 328 327 325 334 336 333 337 344 343 345 345 339 338 339 340 343 344 345 348 352 357 365 366 361 363 365 364 361 359 356 355 355 356 358 358 354 353 353 352 351 349 348 347 347 346 347 346 346 346 347 347 346
319 327 329 328 329 328 321 319 327 329 327 329 328 329 335 337 336 341 340 334 338 345 346 344 344 344 344 344 346 349 349 355 367 369 362 360 365 368 368 365 360 357 357 355 356 356 353 352 353 351 352 350 347 347 347 346 346 346 345 345 346 347 346
319 326 328 330 330 321 317 325 329 330 334 334 332 338 343 343 346 347 339 335 338 345 348 348 346 341 342 344 347 348 352 357 362 366 363 362 367 375 378 375 365 359 358 355 351 351 351 352 352 351 351 350 348 346 346 345 345 345 345 345 346 346 345
319 327 329 331 326 317 321 339 341 333 338 336 333 336 340 344 349 349 347 347 348 345 344 346 344 340 342 347 346 348 357 363 364 365 365 364 366 374 386 393 383 366 358 354 348 349 351 352 352 351 351 350 348 346 346 345 345 345 345 346 346 346 345
325 331 327 317 317 325 342 353 343 335 337 339 340 339 339 343 348 350 351 348 348 347 344 342 343 343 345 347 348 351 355 362 366 365 367 365 363 366 380 399 402 379 359 353 350 349 351 351 351 352 351 349 348 346 346 345 345 346 346 345 344 342 341
329 328 321 317 324 342 358 351 338 338 343 344 344 337 336 344 346 345 345 345 345 346 344 342 346 348 349 350 350 351 356 364 365 361 365 365 362 366 377 390 397 378 357 352 352 351 352 351 351 352 351 350 349 346 345 345 345 345 344 341 338 335 335
333 329 325 327 328 331 340 343 339 340 343 347 347 336 334 346 347 340 342 347 348 347 344 346 348 348 352 351 345 345 355 372 376 361 357 362 367 376 370 359 357 355 350 352 353 351 352 352 351 352 351 350 347 344 343 344 344 342 339 336 334 333 335
338 338 331 327 320 320 334 347 342 336 336 347 362 351 341 344 345 342 345 345 345 346 345 347 348 349 350 349 351 354 353 359 366 356 348 355 365 367 355 345 344 347 350 352 352 351 353 353 351 352 349 347 344 340 341 342 341 340 337 334 334 335 335
337 341 334 328 323 327 342 349 343 336 334 345 357 348 342 345 345 345 347 343 342 344 343 346 349 349 349 351 365 376 360 347 352 352 352 362 361 348 343 350 355 356 356 353 351 352 352 350 350 351 347 344 342 340 340 341 340 340 338 336 336 336 334
337 341 334 329 329 334 343 346 342 336 337 344 337 328 333 348 348 344 347 348 349 349 349 348 346 347 354 358 360 360 351 347 352 354 357 369 364 349 345 352 355 355 356 353 350 349 349 348 350 349 346 344 342 341 342 341 341 342 341 339 338 336 333
332 332 328 325 331 340 343 342 341 340 348 352 337 329 340 351 345 344 346 346 347 351 353 353 347 344 350 353 347 343 344 349 354 352 348 350 350 347 347 351 352 349 349 350 349 349 349 349 349 348 346 345 342 341 342 341 342 343 343 340 338 334 333
332 335 330 324 330 342 342 339 343 347 349 345 339 344 353 349 342 345 344 341 344 346 347 350 346 342 342 342 342 342 344 349 353 351 347 344 345 350 350 350 350 347 345 347 348 348 348 348 348 349 346 345 342 341 341 341 341 340 341 339 337 335 335
345 344 333 323 328 338 339 341 351 351 346 344 350 354 349 342 343 345 343 343 345 343 343 346 345 343 342 341 341 341 343 350 355 353 352 349 349 355 353 349 348 345 343 342 343 345 347 347 348 349 346 343 342 340 340 341 341 340 339 339 340 340 338
354 344 333 331 337 339 336 340 346 343 341 345 350 346 340 337 341 342 341 343 343 342 343 343 342 342 342 342 344 344 348 360 366 365 368 363 354 351 350 349 347 344 341 341 342 342 344 345 346 347 346 344 341 340 341 341 341 340 340 340 342 343 340
348 343 340 344 343 338 333 335 337 336 337 338 337 335 334 336 337 339 340 340 340 341 344 343 343 347 345 345 351 352 351 356 361 362 362 356 348 347 348 349 347 343 340 341 340 340 342 343 344 344 344 343 341 341 341 342 341 340 340 340 341 341 339
342 342 341 343 342 336 333 332 331 332 333 333 332 334 334 334 333 335 337 338 339 340 343 346 348 348 347 351 361 365 359 358 364 366 358 347 341 343 349 351 348 343 339 338 339 339 340 339 339 340 340 339 339 338 338 338 339 339 339 338 338 336 334
344 344 345 346 343 337 335 335 333 332 331 331 332 335 336 334 333 332 333 333 334 336 340 346 351 351 352 353 361 371 375 372 374 380 374 356 343 341 347 351 347 341 338 338 339 339 339 339 340 339 338 337 336 336 336 336 337 338 336 334 333 331 330
351 349 352 354 344 335 335 337 337 335 333 331 331 333 333 333 331 331 332 331 329 331 335 338 341 347 354 355 356 367 379 379 376 377 373 359 344 341 345 348 344 340 339 339 338 336 337 340 340 337 336 335 332 331 332 331 332 332 330 327 325 324 326
354 347 348 351 343 334 333 336 337 338 334 332 331 330 329 330 330 330 332 331 330 329 332 333 335 340 350 359 359 360 368 377 381 373 357 345 340 340 341 342 341 340 339 337 334 333 335 338 337 336 336 333 331 329 327 325 325 326 328 328 325 321 324
352 350 345 344 340 336 333 334 337 338 334 330 331 330 329 330 332 333 332 333 335 335 333 335 338 339 344 354 358 358 363 373 379 368 350 340 339 340 339 340 341 340 336 333 332 332 335 336 336 336 333 330 330 330 326 323 323 323 328 332 330 326 328
348 348 345 345 344 338 333 332 335 336 334 330 329 330 330 329 331 334 335 337 342 343 336 331 331 334 335 340 350 357 359 358 355 351 345 340 339 339 338 338 338 335 331 331 331 331 332 333 334 333 330 327 328 329 326 325 325 324 325 328 327 327 329
343 341 342 346 346 335 329 330 330 330 332 330 327 329 331 329 329 332 334 335 336 337 332 326 324 326 328 331 341 355 357 349 342 342 342 341 339 339 338 336 334 332 331 331 331 331 331 333 333 332 330 329 329 330 329 328 328 329 327 326 324 324 325
341 340 336 335 335 331 329 329 326 326 328 329 327 327 329 330 330 330 328 329 327 325 326 325 322 322 326 328 335 343 347 343 341 341 341 341 339 337 336 335 333 333 332 331 331 331 332 333 333 332 332 332 331 330 330 329 330 330 327 324 324 325 325
Wind_Speed
10 11 10 10 9 6 4 4 5 5 6 8 3 4 3 3 2 4 2 2 4 2 4 6 4 7 9 12 12 12 12 12 13 13 12 13 13 13 13 14 15 16 19 24 27 30 31 32 35 37 39 41 41 41 40 39 39 38 37 35 33 30 26
11 9 9 10 9 7 5 6 7 3 2 4 4 2 2 4 1 4 2 3 3 1 3 5 2 7 10 13 14 13 12 12 13 13 13 14 15 15 15 15 15 15 18 23 27 31 34 37 39 41 43 44 44 44 44 43 41 41 40 38 35 32 29
9 6 7 9 7 6 6 6 6 5 4 2 1 3 2 1 2 3 4 4 3 4 5 4 5 9 10 12 12 13 13 13 14 13 13 14 14 13 13 13 12 13 17 23 28 31 34 37 40 42 43 42 42 43 44 45 45 44 42 39 37 34 32
9 5 5 7 7 4 2 3 4 3 4 6 3 3 5 4 3 3 4 5 3 5 6 7 11 10 10 11 11 13 15 15 14 12 12 13 13 13 13 13 14 14 18 25 31 34 36 38 39 39 40 40 40 41 43 44 44 42 40 38 37 35 34
8 7 5 8 9 6 3 4 5 3 0 3 3 2 2 4 4 4 3 3 5 5 4 8 12 11 12 15 15 13 13 13 14 13 14 14 13 14 14 14 15 16 19 27 33 35 36 36 35 35 36 38 39 39 40 41 40 40 40 39 37 36 35
5 6 8 11 12 10 7 6 6 5 3 4 4 3 2 2 5 5 4 4 7 6 4 8 11 11 12 14 14 12 11 14 14 13 14 14 14 15 16 17 17 17 19 25 31 32 31 31 32 34 35 36 37 38 39 39 39 40 41 39 38 37 35
7 7 10 13 13 11 8 6 6 6 5 5 6 5 4 2 3 3 4 3 6 6 5 7 7 8 9 10 13 13 12 14 14 12 13 14 15 16 17 17 17 16 18 24 28 29 29 31 32 34 35 36 37 37 38 37 37 38 39 38 37 36 35
6 7 9 10 10 9 6 4 5 6 6 5 6 5 4 4 4 3 3 3 6 6 4 7 7 8 9 11 13 14 12 11 12 13 13 13 14 15 16 17 16 14 17 21 23 24 27 29 30 33 34 34 35 35 36 36 37 38 37 35 34 33 33
4 5 6 7 6 6 4 3 6 7 7 8 5 3 3 3 4 6 6 4 6 5 1 5 8 10 11 11 11 13 13 11 11 12 12 13 14 14 15 16 15 15 15 16 17 21 25 27 29 32 33 34 35 36 37 37 37 37 35 34 33 32 33
5 6 7 7 5 4 2 4 7 8 9 11 7 3 4 4 4 5 6 5 7 5 1 3 7 11 12 9 8 9 10 11 11 10 10 11 13 15 17 17 16 16 15 14 16 20 25 27 29 31 32 34 35 37 38 38 38 37 35 34 33 33 34
7 8 9 7 7 7 6 6 9 9 9 11 8 6 5 6 4 4 6 6 5 3 4 6 8 11 13 10 7 8 8 9 10 10 10 11 12 14 16 15 14 14 13 14 16 20 25 28 30 33 34 35 36 36 38 39 39 39 36 35 35 35 35
12 11 9 8 9 11 10 10 11 11 9 10 9 7 7 7 7 4 9 7 11 11 11 11 12 12 11 9 9 10 9 8 10 10 11 12 12 11 11 11 13 14 14 15 16 20 26 30 31 33 35 37 39 39 40 40 39 39 37 37 37 37 37
14 13 10 8 10 12 12 12 13 12 11 10 10 10 9 9 8 8 9 11 15 15 13 15 16 15 13 12 11 11 10 8 9 9 10 11 11 11 11 12 13 14 15 16 16 19 25 29 31 32 33 36 37 38 40 40 40 40 39 39 38 39 39
12 12 11 9 9 9 12 15 15 13 12 12 12 12 10 11 10 10 11 14 14 13 15 18 16 13 11 10 9 9 10 10 9 9 10 10 10 12 13 13 14 15 16 17 17 18 22 27 31 32 32 34 36 38 38 39 41 41 41 40 40 41 41
9 10 8 7 8 8 11 14 13 10 10 11 12 12 10 9 8 8 12 14 11 9 11 13 11 8 9 9 8 9 10 10 10 10 10 10 10 10 11 10 11 12 13 14 15 16 20 27 32 32 33 36 38 38 37 39 42 42 42 42 41 39 38
6 6 5 4 4 3 5 9 8 4 4 5 5 5 5 6 6 5 8 11 10 8 5 5 6 8 11 12 10 9 9 9 11 11 10 10 10 10 10 10 11 11 11 11 12 14 20 27 30 33 35 36 35 36 37 40 42 41 40 38 35 34 35
5 5 7 7 6 5 3 7 5 5 5 5 4 3 2 3 6 7 6 9 10 7 7 8 7 9 13 13 11 9 9 9 10 10 9 9 9 9 10 10 11 12 11 11 13 17 21 26 30 34 34 33 35 38 39 40 38 37 37 37 36 38 39
5 5 6 7 6 4 3 7 1 6 9 9 8 5 3 0 4 6 4 6 6 7 10 12 12 11 11 11 8 8 9 9 9 9 9 9 9 9 9 10 11 12 11 12 17 22 25 28 32 35 35 36 38 38 37 37 38 38 37 37 38 37 35
3 2 6 5 3 4 5 6 2 6 10 11 10 7 6 5 6 8 7 4 3 7 9 9 10 8 7 6 5 7 8 8 9 8 8 8 9 9 9 9 10 11 10 12 16 20 25 28 29 30 32 33 33 33 34 35 33 31 30 29 29 29 29
3 3 5 5 7 4 3 2 1 4 7 8 9 9 9 10 7 7 9 8 7 9 8 7 9 8 5 5 3 3 6 7 9 9 8 9 9 9 9 9 10 12 13 16 20 23 27 29 28 28 31 33 33 29 24 19 16 19 24 24 23 21 21
3 5 3 1 2 2 5 2 2 2 2 5 7 6 4 8 8 4 6 9 10 11 10 8 8 8 7 7 4 3 4 6 8 8 8 9 8 7 7 6 9 13 17 21 24 25 26 25 25 26 27 26 23 17 18 20 23 28 30 27 23 19 17
2 5 4 2 3 2 3 5 6 5 1 7 10 7 3 6 9 7 2 9 11 11 11 9 8 8 7 5 1 6 5 3 5 6 6 6 7 7 5 5 7 11 15 17 17 17 17 17 19 19 16 15 17 23 27 30 33 34 31 27 27 27 22
3 6 4 1 3 4 5 7 7 8 4 4 8 8 3 6 10 9 1 8 9 9 9 9 9 8 6 4 5 6 4 1 4 6 5 4 6 10 13 13 13 14 15 15 14 15 16 16 16 16 16 20 25 27 28 32 34 32 30 28 30 31 25
4 4 3 1 2 1 3 7 7 7 3 3 7 5 4 7 10 8 1 6 6 6 6 6 6 7 5 6 5 5 3 1 2 4 5 5 5 7 11 15 16 17 19 20 19 19 20 20 19 20 23 27 29 28 28 30 30 32 34 34 33 33 29
4 3 1 1 1 1 4 6 7 7 4 7 7 4 5 5 7 5 6 8 6 6 7 6 5 5 2 4 1 5 6 6 6 5 3 4 4 4 8 12 14 15 16 19 21 23 25 26 24 25 28 30 30 31 31 29 30 35 37 34 30 32 33
2 2 1 1 1 3 6 6 6 7 6 6 3 4 4 4 5 6 9 9 8 8 9 7 6 5 4 4 5 7 7 7 6 7 6 5 5 4 6 8 11 13 14 17 21 24 27 30 30 30 32 31 30 30 30 31 35 37 34 27 26 33 38
2 3 3 0 2 6 10 7 6 7 5 5 5 1 2 3 5 7 8 7 7 7 7 6 5 5 7 7 6 6 5 5 4 3 1 1 1 4 4 4 9 13 14 15 19 23 28 31 31 33 32 29 27 27 28 33 36 32 25 22 25 31 32
3 3 3 0 3 7 8 4 5 4 3 3 4 4 5 6 6 7 6 7 8 7 7 7 7 8 8 7 6 5 5 5 5 4 3 3 4 5 4 3 9 13 15 17 18 21 26 29 31 33 32 29 27 28 32 35 34 28 23 21 22 24 23
3 4 1 2 4 6 7 8 7 5 6 6 5 8 8 7 7 6 6 8 9 8 9 9 9 9 8 7 7 6 4 3 3 3 4 5 5 5 5 5 4 5 9 17 20 20 23 27 28 26 23 21 19 17 21 25 27 28 25 19 17 18 18
5 5 2 2 3 5 7 7 6 7 7 5 5 8 8 7 7 6 6 8 8 8 8 9 8 7 6 7 6 5 5 4 4 4 4 4 4 5 6 7 6 3 4 10 16 15 14 14 11 8 10 12 13 12 10 8 9 18 21 17 15 15 13
4 3 1 2 3 4 5 6 6 7 7 6 6 7 5 5 6 7 6 7 7 7 7 8 7 6 6 7 6 4 4 5 5 5 3 2 1 4 7 9 11 9 7 7 10 11 11 11 13 15 17 18 17 15 12 9 7 9 16 19 18 17 17
3 2 3 3 2 3 5 5 5 5 6 8 7 7 6 6 7 7 7 8 9 9 9 9 9 9 7 7 6 4 3 3 4 4 5 4 3 0 5 10 13 15 13 10 12 16 17 19 21 21 22 23 22 22 22 20 20 22 21 18 16 15 12
3 1 2 3 3 6 7 6 5 4 5 7 9 9 10 10 11 10 10 10 10 11 10 10 12 11 9 7 7 6 5 5 4 4 5 4 3 1 2 6 11 15 16 17 19 20 20 25 29 30 31 30 28 28 28 26 25 25 22 20 19 17 9
3 3 3 2 3 3 3 5 6 6 5 8 10 10 10 10 9 9 9 9 10 10 10 9 9 10 9 9 8 7 6 6 5 4 4 3 1 3 5 6 9 13 18 22 25 23 23 27 32 32 32 31 29 29 28 27 26 25 19 16 17 13 7
2 2 2 3 5 4 0 3 5 5 5 8 10 8 8 8 7 6 6 7 6 5 7 7 5 6 8 8 8 8 7 6 7 6 6 6 6 8 10 11 13 15 18 23 26 26 25 28 31 31 30 29 27 24 20 17 16 16 11 4 1 3 7
3 4 3 2 5 5 3 2 4 4 4 6 7 7 7 8 7 7 7 6 4 1 5 6 5 5 6 7 8 8 8 6 6 7 8 9 11 12 12 14 17 18 19 22 25 26 27 29 29 26 22 17 14 13 14 12 9 6 6 13 19 21 22
3 4 5 2 6 4 2 3 5 6 6 6 7 7 8 9 8 7 8 7 5 4 5 5 7 9 9 9 9 8 8 7 6 7 8 9 10 12 14 16 19 21 23 26 29 30 30 30 29 26 21 18 19 22 21 17 14 13 15 21 26 26 25
Wind_Direction
216 197 178 172 177 192 215 177 174 205 172 146 162 234 235 104 152 252 241 269 299 280 319 349 86 129 142 156 167 169 170 168 170 180 184 183 186 186 187 188 188 187 184 184 186 186 186 186 185 186 188 189 189 190 191 193 195 196 197 200 201 201 202
230 208 177 181 183 160 156 200 208 200 137 123 120 197 315 54 164 274 297 254 276 230 267 321 83 146 163 169 172 173 172 167 172 183 183 184 186 185 187 189 188 186 184 185 187 189 189 189 188 189 190 190 190 190 191 191 193 195 197 200 200 200 199
222 212 187 200 207 165 150 182 186 154 159 187 104 153 169 101 204 274 300 269 242 199 221 233 184 182 181 174 170 172 176 177 180 182 181 182 184 182 184 186 187 188 188 188 189 191 193 192 192 192 191 190 190 190 191 192 194 197 198 198 198 198 198
191 192 195 201 220 226 160 140 162 171 167 175 183 166 158 160 193 233 280 299 274 225 217 199 191 188 175 168 174 183 185 185 185 179 174 179 180 180 183 184 190 192 190 191 191 192 194 195 194 193 190 190 190 191 192 193 194 196 197 197 197 196 197
182 192 209 194 197 207 186 152 180 221 86 147 174 187 151 143 152 184 220 270 268 248 215 190 188 182 176 178 182 188 187 186 189 183 177 180 179 179 183 186 191 193 193 195 195 194 194 194 193 192 190 190 190 191 192 193 193 193 195 197 197 196 196
211 208 212 198 192 189 173 165 184 188 148 127 161 229 284 128 146 168 176 220 262 260 200 185 189 184 183 182 178 182 187 188 193 189 179 177 176 179 186 190 191 192 195 196 195 194 192 191 191 191 190 190 190 192 193 193 192 193 195 196 196 196 195
238 222 214 202 187 176 167 174 186 177 151 126 150 204 246 204 174 146 132 193 266 265 200 176 179 175 174 179 179 183 191 193 193 188 176 177 183 186 188 192 193 193 195 194 191 190 190 189 190 190 189 190 191 192 192 191 193 194 196 196 194 194 193
264 247 233 213 183 161 161 181 169 162 169 156 151 171 180 187 192 145 134 223 266 274 218 168 162 165 174 187 188 186 190 196 195 184 174 179 189 191 190 193 196 195 193 191 188 188 189 188 189 189 189 191 191 191 191 191 193 195 196 195 193 191 192
264 259 242 229 207 179 167 171 168 171 171 159 149 126 138 215 222 157 149 214 254 277 229 163 171 171 180 194 188 183 186 191 196 185 177 182 185 189 195 197 197 194 190 189 188 188 187 186 187 188 188 189 189 190 192 192 193 194 194 193 191 190 192
199 208 213 214 209 205 194 164 177 187 175 169 173 136 142 224 234 147 151 209 253 289 49 185 200 175 179 195 185 180 181 179 186 180 173 181 181 186 196 197 196 194 190 190 187 186 185 185 186 187 187 189 189 191 192 192 192 193 192 191 189 189 192
195 197 209 205 176 184 207 193 190 199 192 183 169 126 155 198 173 170 208 192 187 218 184 199 213 185 179 186 174 173 175 172 178 173 168 177 183 190 195 193 193 192 189 189 185 183 186 186 186 186 187 188 189 191 192 193 192 192 191 189 188 188 191
211 205 213 211 181 186 201 202 202 202 194 183 168 164 186 163 136 207 245 186 163 191 198 193 202 196 184 176 170 173 173 174 179 170 164 173 183 191 192 188 187 186 188 190 187 186 186 186 187 188 188 189 190 191 192 192 192 191 190 188 187 188 191
221 214 212 201 186 194 200 204 209 202 189 181 185 202 196 155 158 213 223 189 181 189 194 194 195 191 181 176 177 173 165 170 176 162 155 169 182 185 185 187 187 187 189 189 188 190 188 187 187 187 189 191 191 193 193 192 192 191 189 187 187 188 192
229 223 214 193 181 198 206 209 211 204 195 186 188 206 200 177 197 210 183 185 198 193 190 195 194 186 173 166 167 162 157 162 165 155 154 167 182 186 187 191 189 189 192 189 189 191 188 188 189 188 190 192 193 195 194 191 192 192 189 187 187 190 193
225 222 215 199 184 193 209 213 212 209 211 205 200 209 201 184 211 210 167 178 210 220 201 190 176 159 147 147 157 159 161 162 159 162 168 168 175 184 189 196 198 199 199 196 194 191 189 191 191 189 191 193 195 196 194 193 195 193 190 189 189 190 191
211 200 158 140 151 163 207 209 194 184 205 208 205 205 180 170 188 170 152 178 213 227 199 143 136 152 152 155 160 159 165 166 159 166 176 168 168 180 186 194 202 205 204 202 201 199 197 195 193 193 195 195 196 196 195 197 197 194 191 190 187 187 188
210 200 131 98 68 46 287 233 185 126 117 107 79 56 70 164 159 138 160 206 218 202 155 135 155 172 162 161 165 163 169 168 154 159 167 162 167 181 186 190 196 200 202 202 202 203 200 197 197 199 198 196 199 200 199 199 197 194 191 187 184 185 186
207 211 132 93 67 85 240 263 285 100 110 102 82 48 352 237 134 128 166 208 200 171 162 165 173 175 166 164 167 162 158 150 144 153 159 160 167 180 187 190 194 197 199 199 200 202 202 201 201 201 200 201 203 202 200 199 198 195 191 186 184 181 178
178 164 109 112 185 197 231 275 321 101 111 101 85 54 7 21 73 87 82 79 126 144 152 155 152 150 146 138 137 147 147 139 141 152 163 169 172 179 185 188 194 198 196 192 193 198 202 205 205 204 204 204 204 203 202 201 199 192 183 176 170 163 161
149 110 107 168 213 252 303 282 206 89 89 84 72 50 13 5 31 82 91 82 84 99 107 116 122 123 110 82 80 171 170 150 145 154 173 182 181 182 184 185 191 196 193 190 191 195 199 202 205 207 208 207 206 204 195 180 164 154 149 142 134 135 147
140 122 100 184 200 336 352 331 271 320 101 129 115 89 16 354 360 24 92 98 97 99 101 109 117 111 91 68 32 283 227 186 170 167 177 182 178 182 192 189 186 189 193 194 196 197 197 198 202 207 210 210 199 171 138 131 136 140 140 136 135 143 153
85 100 75 45 127 164 275 277 289 313 243 151 124 96 349 330 348 346 87 121 119 119 120 122 115 100 92 102 238 286 287 221 175 159 169 173 153 140 131 117 133 164 182 189 192 190 186 189 198 203 200 184 154 136 139 148 151 150 150 154 160 166 169
54 88 98 130 156 179 245 266 295 319 290 172 105 72 331 308 336 331 234 130 121 122 130 136 125 109 114 167 241 277 288 199 148 136 132 128 124 126 128 126 128 137 146 151 157 164 166 170 182 183 168 150 140 139 148 154 153 156 165 173 174 171 173
45 79 108 190 168 162 270 271 291 312 295 127 89 75 271 297 327 327 31 101 95 98 107 113 106 106 148 194 246 294 307 66 101 121 128 127 129 131 128 128 130 129 129 132 139 150 157 161 168 169 160 150 144 145 153 158 163 171 181 188 186 178 179
35 63 104 264 241 318 289 282 301 327 21 69 83 154 228 293 330 356 55 61 48 58 72 76 71 67 138 190 262 352 25 46 23 8 57 101 110 125 129 133 137 137 137 142 149 158 163 164 169 171 165 159 157 159 165 173 181 186 192 196 189 182 188
69 86 85 291 271 307 301 302 338 10 52 85 118 201 230 300 346 32 55 57 50 53 63 75 84 71 54 59 40 25 41 55 26 5 15 26 30 80 122 139 145 139 138 146 154 162 168 169 174 177 173 170 170 171 176 187 193 195 199 200 193 192 197
95 68 46 15 237 296 306 317 3 23 66 152 193 196 30 7 18 37 48 52 51 55 62 67 76 72 53 45 41 32 34 34 24 30 82 80 56 86 103 159 166 151 145 151 158 164 170 174 179 181 178 174 172 175 186 196 199 199 202 207 205 202 201
70 73 47 232 245 295 325 33 80 45 51 128 154 108 71 45 37 36 35 33 29 40 56 51 44 45 37 25 25 31 33 26 20 20 24 38 72 79 79 162 177 165 156 158 164 169 173 177 182 185 183 179 177 184 197 202 200 199 200 203 199 191 191
89 117 132 262 274 315 6 61 92 86 67 67 80 85 77 62 51 43 40 35 22 22 40 43 38 36 26 14 14 14 14 34 51 44 28 34 56 68 80 120 168 202 180 165 164 171 178 182 184 186 186 181 177 191 210 211 204 200 198 191 178 174 184
105 108 86 353 1 7 21 45 69 81 82 79 75 73 70 67 63 58 55 47 25 15 33 43 36 25 22 30 30 7 353 3 11 17 28 45 75 94 108 131 154 224 221 169 158 160 169 173 162 124 92 82 64 31 349 307 241 210 197 177 153 147 149
108 111 323 344 29 27 21 33 44 55 65 73 80 83 89 91 81 72 63 50 28 17 33 40 27 7 12 27 28 12 6 6 350 336 329 315 170 140 146 156 159 161 166 155 133 116 105 102 95 87 87 89 79 63 51 45 61 119 136 129 117 113 113
104 152 257 288 17 44 37 47 49 44 50 56 61 73 81 75 68 63 56 45 28 16 21 23 11 0 4 6 354 338 328 314 301 289 283 294 316 174 160 161 157 153 150 136 111 98 100 111 114 110 106 102 93 82 79 78 73 72 76 76 70 69 88
64 78 273 299 16 33 23 24 33 42 61 63 55 52 53 49 43 39 39 39 29 13 9 9 359 351 352 344 322 302 286 273 270 278 284 299 329 346 148 153 156 151 140 123 109 104 108 118 119 111 101 96 92 84 76 71 66 54 37 24 24 29 39
150 186 185 162 112 76 358 345 10 26 47 65 60 51 47 48 46 40 37 39 31 10 358 360 352 336 330 322 302 286 277 264 251 248 252 248 209 159 150 147 149 142 130 121 115 111 109 111 111 108 102 100 102 99 86 73 67 62 44 21 16 17 15
176 226 187 137 118 119 157 351 29 34 40 63 67 58 50 51 51 49 53 58 52 5 328 334 339 315 312 314 294 273 263 259 250 235 217 201 183 174 167 153 139 128 122 122 121 116 113 112 111 109 107 105 104 102 93 80 75 74 67 48 62 181 199
15 321 269 149 108 111 128 91 65 49 44 63 67 57 51 46 35 34 45 57 71 5 314 330 349 336 328 327 304 274 260 260 256 239 227 214 193 177 164 149 139 132 129 130 130 129 128 126 123 121 119 117 124 142 153 162 168 167 198 211 205 199 201
92 296 274 117 91 97 135 105 57 37 38 56 57 48 47 48 44 44 46 47 47 33 4 352 354 354 351 347 330 301 278 273 261 231 221 217 197 174 158 151 148 144 141 141 144 146 146 145 147 154 163 174 183 184 184 192 202 201 198 205 212 215 212